Weather History for Kirksville, MO

Change the Weather History Date:

Saturday, March 30, 2013

  Actual Average Record
Temperature  
Mean Temperature 44 °F 46 °F  
Max Temperature 50 °F 57 °F 82 °F (1943)
Min Temperature 37 °F 35 °F 11 °F (1964)
Degree Days  
Heating Degree Days 21 19  
Month to date heating degree days 966 735  
Since 1 July heating degree days 5346 5268  
Cooling Degree Days 0 0  
Month to date cooling degree days 0 0  
Year to date cooling degree days 0 0  
Moisture  
Dew Point 44 °F    
Average Humidity 87    
Maximum Humidity 100    
Minimum Humidity 74    
Precipitation  
Precipitation 0.14 in 0.07 in 1.80 in (1953)
Month to date precipitation 3.34 2.47  
Year to date precipitation 8.79 5.27  
Sea Level Pressure  
Sea Level Pressure 30.01 in    
Wind  
Wind Speed 9 mph (South)    
Max Wind Speed 18 mph    
Max Gust Speed 26 mph    
Visibility 4 miles    
Events Fog , Rain    
T = Trace of Precipitation, MM = Missing Value Source: NWS Daily Summary

Daily Weather History Graph

Daily Weather History Graph

Search for Another Location

Airport:

Trip Planner

Search our weather history database for the weather conditions in past years. The results will help you decide how hot, cold, wet, or windy it might be!

Date:

Astronomy

Mar. 30, 2013 Rise Set
Actual Time 6:56 AM CDT 7:32 PM CDT
Civil Twilight 6:29 AM CDT 8:00 PM CDT
Nautical Twilight 5:57 AM CDT 8:32 PM CDT
Astronomical Twilight 5:24 AM CDT 9:05 PM CDT
Moon 11:40 PM CDT (3/30) 8:52 AM CDT (3/30)
Length of Visible Light 13h 30m
Length of Day
12h 35m
Waning Gibbous, 86% of the Moon is Illuminated
Mar 30
Waning Gibbous
Apr 2
Last Quarter
Apr 10
New
Apr 18
First Quarter
Apr 25
Full

Hourly Weather History & Observations

Time (CDT) Temp. Windchill Dew Point Humidity Pressure Visibility Wind Dir Wind Speed Gust Speed Precip Events Conditions
12:55 AM 41.0 °F 35.8 °F 36.0 °F 82% 30.17 in 10.0 mi ESE 8.1 mph - N/A   Clear
1:55 AM 41.0 °F 36.4 °F 37.0 °F 86% 30.17 in 8.0 mi SE 6.9 mph - N/A   Clear
2:55 AM 42.1 °F 37.7 °F 37.9 °F 85% 30.17 in 8.0 mi SE 6.9 mph - N/A   Clear
3:55 AM 41.0 °F 35.2 °F 37.9 °F 89% 30.14 in 7.0 mi SE 9.2 mph - N/A   Clear
4:55 AM 41.0 °F 36.4 °F 37.9 °F 89% 30.13 in 6.0 mi SE 6.9 mph - N/A   Clear
5:55 AM 41.0 °F 35.2 °F 37.9 °F 89% 30.09 in 5.0 mi SE 9.2 mph - N/A   Clear
6:55 AM 42.1 °F 36.1 °F 39.9 °F 92% 30.09 in 4.0 mi SSE 10.4 mph - N/A   Clear
7:44 AM 42.8 °F 36.6 °F 41.0 °F 93% 30.06 in 2.5 mi SSE 11.5 mph - N/A   Clear
7:52 AM 44.6 °F 38.4 °F 42.8 °F 93% 30.05 in 3.0 mi SSE 12.7 mph - N/A   Clear
7:55 AM 44.1 °F 38.1 °F 42.1 °F 93% 30.07 in 3.0 mi SSE 11.5 mph - N/A   Clear
8:31 AM 44.6 °F 38.4 °F 42.8 °F 93% 30.06 in 2.5 mi SSE 12.7 mph - N/A   Clear
8:41 AM 46.4 °F 40.7 °F 42.8 °F 87% 30.05 in 3.0 mi SSE 12.7 mph - N/A   Clear
8:55 AM 46.0 °F 40.6 °F 44.1 °F 93% 30.07 in 3.0 mi SSE 11.5 mph - N/A   Partly Cloudy
9:55 AM 46.9 °F - 44.1 °F 90% 30.05 in 4.0 mi SSE 15.0 mph - N/A   Overcast
10:55 AM 50.0 °F - 44.1 °F 80% 30.03 in 6.0 mi SSE 16.1 mph - N/A   Haze
11:55 AM 50.0 °F - 43.0 °F 77% 30.03 in 7.0 mi South 15.0 mph - N/A   Overcast
12:55 PM 48.0 °F - 44.1 °F 86% 30.01 in 3.0 mi South 18.4 mph 26.5 mph 0.01 in Rain Rain
1:21 PM 48.2 °F - 44.6 °F 87% 29.99 in 4.0 mi SSW 10.4 mph - 0.04 in Rain Light Rain
1:32 PM 48.2 °F - 44.6 °F 87% 29.99 in 1.8 mi SSW 8.1 mph - 0.06 in Rain Rain
1:52 PM 48.2 °F - 46.4 °F 93% 29.98 in 2.5 mi South 4.6 mph - 0.12 in Rain Light Rain
1:55 PM 48.0 °F - 46.0 °F 93% 30.01 in 2.5 mi South 4.6 mph - 0.12 in Rain Light Rain
2:06 PM 48.2 °F - 46.4 °F 93% 29.98 in 3.0 mi South 6.9 mph - 0.00 in Rain Light Rain
2:38 PM 48.2 °F - 46.4 °F 93% 29.96 in 6.0 mi SSE 10.4 mph - 0.01 in Rain Light Rain
2:55 PM 48.0 °F - 46.0 °F 93% 29.98 in 7.0 mi South 10.4 mph - 0.01 in   Overcast
3:55 PM 48.9 °F - 46.0 °F 90% 29.96 in 6.0 mi South 11.5 mph - N/A   Overcast
4:55 PM 50.0 °F - 46.9 °F 89% 29.94 in 6.0 mi South 9.2 mph - N/A   Overcast
5:55 PM 50.0 °F - 46.9 °F 89% 29.93 in 6.0 mi SSW 8.1 mph - N/A   Overcast
6:55 PM 50.0 °F - 46.9 °F 89% 29.92 in 4.0 mi SSW 6.9 mph - N/A   Overcast
7:55 PM 48.9 °F - 46.9 °F 93% 29.92 in 5.0 mi Calm Calm - N/A   Overcast
8:55 PM 48.9 °F - 48.0 °F 97% 29.93 in 4.0 mi SSW 4.6 mph - N/A   Overcast
9:03 PM 48.2 °F - 48.2 °F 100% 29.91 in 3.0 mi SSW 4.6 mph - N/A   Overcast
9:15 PM 48.2 °F - 48.2 °F 100% 29.92 in 2.5 mi SW 4.6 mph - N/A   Overcast
9:29 PM 48.2 °F - 48.2 °F 100% 29.92 in 1.8 mi SW 4.6 mph - N/A   Overcast
9:55 PM 48.0 °F - 48.0 °F 100% 29.95 in 1.2 mi SW 4.6 mph - N/A   Overcast
10:43 PM 48.2 °F - 48.2 °F 100% 29.93 in 0.8 mi WSW 3.5 mph - N/A   Overcast
10:55 PM 48.0 °F - 48.0 °F 100% 29.94 in 0.5 mi WSW 4.6 mph - N/A Fog Fog
11:55 PM 48.0 °F - 48.0 °F 100% 29.93 in 0.2 mi West 4.6 mph - N/A Fog Fog